Location: Unspecified
(43.0000°N, 0.0000°E)
Time: 15:01:42
(UTC+00:00)

Tiangong 2 - Visible Passes

Search period start: 23 May 2019 00:00
Search period end: 02 June 2019 00:00
Orbit: 379 x 387 km, 42.8° (Epoch: 23 May)

Date Brightness Start Highest point End Pass type
(mag) Time Alt. Az. Time Alt. Az. Time Alt. Az.
23 May 0.9 21:09:51 10° W 21:13:00 88° SSE 21:14:12 34° E visible
24 May 1.0 20:09:49 10° W 20:12:57 80° S 20:16:05 10° E visible
24 May 1.5 21:46:32 10° W 21:49:05 54° WSW 21:49:05 54° WSW visible
25 May 0.9 20:46:29 10° W 20:49:37 87° S 20:51:42 19° E visible
25 May 3.7 22:23:15 10° W 22:23:53 15° W 22:23:53 15° W visible
26 May 1.1 21:23:10 10° W 21:26:14 57° SSW 21:26:27 55° S visible
27 May 1.0 20:23:06 10° W 20:26:13 75° S 20:29:00 13° ESE visible
27 May 3.3 22:00:01 10° W 22:01:10 17° WSW 22:01:10 17° WSW visible
28 May 1.7 20:59:48 10° W 21:02:45 39° SSW 21:03:41 30° SSE visible
29 May 1.3 19:59:41 10° W 20:02:47 58° SSW 20:05:51 10° ESE visible
29 May 3.3 21:37:02 10° WSW 21:38:24 15° SW 21:38:24 15° SW visible
30 May 2.5 20:36:31 10° W 20:39:12 26° SSW 20:40:57 16° SSE visible
01 Jun 3.2 20:13:28 10° WSW 20:15:35 17° SSW 20:17:40 10° SSE visible
